Year,Month,Day,Hour,Minute,Value (Times are PST for temperature in C)
2009,07,03,00,00,16.70
2009,07,03,00,01,16.70
2009,07,03,00,02,16.70
2009,07,03,00,03,16.70
2009,07,03,00,04,16.70
2009,07,03,00,05,16.70
2009,07,03,00,06,16.80
2009,07,03,00,07,16.80
2009,07,03,00,08,16.90
2009,07,03,00,09,16.90
2009,07,03,00,10,16.90
2009,07,03,00,11,16.90
2009,07,03,00,12,17.00
2009,07,03,00,13,17.00
2009,07,03,00,14,17.00
2009,07,03,00,15,17.10
2009,07,03,00,16,17.20
2009,07,03,00,17,17.20
2009,07,03,00,18,17.30
2009,07,03,00,19,17.30
2009,07,03,00,20,17.30
2009,07,03,00,21,17.30
2009,07,03,00,22,17.30
2009,07,03,00,23,17.20
2009,07,03,00,24,17.20
2009,07,03,00,25,17.20
2009,07,03,00,26,17.10
2009,07,03,00,27,17.10
2009,07,03,00,28,17.10
2009,07,03,00,29,17.10
2009,07,03,00,30,17.00
2009,07,03,00,31,17.00
2009,07,03,00,32,17.00
2009,07,03,00,33,16.90
2009,07,03,00,34,16.90
2009,07,03,00,35,16.90
2009,07,03,00,36,16.80
2009,07,03,00,37,16.80
2009,07,03,00,38,16.80
2009,07,03,00,39,16.70
2009,07,03,00,40,16.70
2009,07,03,00,41,16.70
2009,07,03,00,42,16.70
2009,07,03,00,43,16.70
2009,07,03,00,44,16.70
2009,07,03,00,45,16.70
2009,07,03,00,46,16.70
2009,07,03,00,47,16.70
2009,07,03,00,48,16.70
2009,07,03,00,49,16.70
2009,07,03,00,50,16.60
2009,07,03,00,51,16.60
2009,07,03,00,52,16.60
2009,07,03,00,53,16.60
2009,07,03,00,54,16.50
2009,07,03,00,55,16.40
2009,07,03,00,56,16.40
2009,07,03,00,57,16.40
2009,07,03,00,58,16.40
2009,07,03,00,59,16.40
2009,07,03,01,00,16.40
2009,07,03,01,01,16.40
2009,07,03,01,02,16.50
2009,07,03,01,03,16.60
2009,07,03,01,04,16.60
2009,07,03,01,05,16.60
2009,07,03,01,06,16.60
2009,07,03,01,07,16.60
2009,07,03,01,08,16.60
2009,07,03,01,09,16.60
2009,07,03,01,10,16.60
2009,07,03,01,11,16.60
2009,07,03,01,12,16.60
2009,07,03,01,13,16.60
2009,07,03,01,14,16.60
2009,07,03,01,15,16.60
2009,07,03,01,16,16.60
2009,07,03,01,17,16.60
2009,07,03,01,18,16.60
2009,07,03,01,19,16.60
2009,07,03,01,20,16.50
2009,07,03,01,21,16.40
2009,07,03,01,22,16.40
2009,07,03,01,23,16.50
2009,07,03,01,24,16.60
2009,07,03,01,25,16.60
2009,07,03,01,26,16.60
2009,07,03,01,27,16.50
2009,07,03,01,28,16.40
2009,07,03,01,29,16.40
2009,07,03,01,30,16.40
2009,07,03,01,31,16.40
2009,07,03,01,32,16.40
2009,07,03,01,33,16.40
2009,07,03,01,34,16.40
2009,07,03,01,35,16.40
2009,07,03,01,36,16.40
2009,07,03,01,37,16.40
2009,07,03,01,38,16.40
2009,07,03,01,39,16.40
2009,07,03,01,40,16.30
2009,07,03,01,41,16.30
2009,07,03,01,42,16.30
2009,07,03,01,43,16.30
2009,07,03,01,44,16.30
2009,07,03,01,45,16.20
2009,07,03,01,46,16.20
2009,07,03,01,47,16.20
2009,07,03,01,48,16.20
2009,07,03,01,49,16.20
2009,07,03,01,50,16.20
2009,07,03,01,51,16.20
2009,07,03,01,52,16.20
2009,07,03,01,53,16.20
2009,07,03,01,54,16.10
2009,07,03,01,55,16.10
2009,07,03,01,56,16.10
2009,07,03,01,57,16.10
2009,07,03,01,58,16.10
2009,07,03,01,59,16.10
2009,07,03,02,00,16.10
2009,07,03,02,01,16.10
2009,07,03,02,02,16.00
2009,07,03,02,03,15.90
2009,07,03,02,04,15.90
2009,07,03,02,05,15.90
2009,07,03,02,06,15.90
2009,07,03,02,07,15.90
2009,07,03,02,08,15.90
2009,07,03,02,09,15.90
2009,07,03,02,10,15.90
2009,07,03,02,11,15.90
2009,07,03,02,12,15.90
2009,07,03,02,13,15.90
2009,07,03,02,14,15.90
2009,07,03,02,15,15.90
2009,07,03,02,16,16.00
2009,07,03,02,17,16.10
2009,07,03,02,18,16.10
2009,07,03,02,19,16.10
2009,07,03,02,20,16.10
2009,07,03,02,21,16.10
2009,07,03,02,22,16.10
2009,07,03,02,23,16.10
2009,07,03,02,24,16.20
2009,07,03,02,25,16.30
2009,07,03,02,26,16.30
2009,07,03,02,27,16.40
2009,07,03,02,28,16.40
2009,07,03,02,29,16.40
2009,07,03,02,30,16.40
2009,07,03,02,31,16.50
2009,07,03,02,32,16.60
2009,07,03,02,33,16.60
2009,07,03,02,34,16.60
2009,07,03,02,35,16.60
2009,07,03,02,36,16.60
2009,07,03,02,37,16.60
2009,07,03,02,38,16.60
2009,07,03,02,39,16.40
2009,07,03,02,40,16.40
2009,07,03,02,41,16.40
2009,07,03,02,42,16.40
2009,07,03,02,43,16.40
2009,07,03,02,44,16.40
2009,07,03,02,45,16.30
2009,07,03,02,46,16.30
2009,07,03,02,47,16.30
2009,07,03,02,48,16.20
2009,07,03,02,49,16.20
2009,07,03,02,50,16.20
2009,07,03,02,51,16.20
2009,07,03,02,52,16.20
2009,07,03,02,53,16.20
2009,07,03,02,54,16.20
2009,07,03,02,55,16.20
2009,07,03,02,56,16.20
2009,07,03,02,57,16.20
2009,07,03,02,58,16.20
2009,07,03,02,59,16.20
2009,07,03,03,00,16.10
2009,07,03,03,01,16.10
2009,07,03,03,02,16.10
2009,07,03,03,03,16.10
2009,07,03,03,04,16.10
2009,07,03,03,05,16.10
2009,07,03,03,06,16.10
2009,07,03,03,07,16.10
2009,07,03,03,08,16.10
2009,07,03,03,09,16.10
2009,07,03,03,10,16.10
2009,07,03,03,11,16.00
2009,07,03,03,12,15.90
2009,07,03,03,13,15.90
2009,07,03,03,14,15.90
2009,07,03,03,15,15.90
2009,07,03,03,16,15.90
2009,07,03,03,17,15.90
2009,07,03,03,18,15.90
2009,07,03,03,19,15.90
2009,07,03,03,20,15.90
2009,07,03,03,21,15.90
2009,07,03,03,22,16.00
2009,07,03,03,23,16.10
2009,07,03,03,24,16.10
2009,07,03,03,25,16.10
2009,07,03,03,26,16.10
2009,07,03,03,27,16.10
2009,07,03,03,28,16.10
2009,07,03,03,29,16.10
2009,07,03,03,30,16.10
2009,07,03,03,31,16.10
2009,07,03,03,32,16.10
2009,07,03,03,33,16.10
2009,07,03,03,34,16.10
2009,07,03,03,35,16.10
2009,07,03,03,36,16.00
2009,07,03,03,37,16.00
2009,07,03,03,38,16.10
2009,07,03,03,39,16.00
2009,07,03,03,40,15.90
2009,07,03,03,41,15.90
2009,07,03,03,42,15.90
2009,07,03,03,43,15.90
2009,07,03,03,44,15.90
2009,07,03,03,45,15.90
2009,07,03,03,46,15.90
2009,07,03,03,47,15.90
2009,07,03,03,48,15.80
2009,07,03,03,49,15.80
2009,07,03,03,50,15.80
2009,07,03,03,51,15.80
2009,07,03,03,52,15.80
2009,07,03,03,53,15.80
2009,07,03,03,54,15.80
2009,07,03,03,55,15.80
2009,07,03,03,56,15.80
2009,07,03,03,57,15.70
2009,07,03,03,58,15.70
2009,07,03,03,59,15.70
2009,07,03,04,00,15.70
2009,07,03,04,01,15.60
2009,07,03,04,02,15.60
2009,07,03,04,03,15.60
2009,07,03,04,04,15.60
2009,07,03,04,05,15.60
2009,07,03,04,06,15.50
2009,07,03,04,07,15.50
2009,07,03,04,08,15.50
2009,07,03,04,09,15.50
2009,07,03,04,10,15.50
2009,07,03,04,11,15.40
2009,07,03,04,12,15.30
2009,07,03,04,13,15.30
2009,07,03,04,14,15.30
2009,07,03,04,15,15.20
2009,07,03,04,16,15.20
2009,07,03,04,17,15.10
2009,07,03,04,18,15.10
2009,07,03,04,19,15.10
2009,07,03,04,20,15.00
2009,07,03,04,21,15.00
2009,07,03,04,22,14.90
2009,07,03,04,23,14.90
2009,07,03,04,24,14.90
2009,07,03,04,25,14.80
2009,07,03,04,26,14.80
2009,07,03,04,27,14.80
2009,07,03,04,28,14.70
2009,07,03,04,29,14.60
2009,07,03,04,30,14.60
2009,07,03,04,31,14.60
2009,07,03,04,32,14.50
2009,07,03,04,33,14.50
2009,07,03,04,34,14.40
2009,07,03,04,35,14.40
2009,07,03,04,36,14.30
2009,07,03,04,37,14.30
2009,07,03,04,38,14.30
2009,07,03,04,39,14.30
2009,07,03,04,40,14.30
2009,07,03,04,41,14.20
2009,07,03,04,42,14.20
2009,07,03,04,43,14.20
2009,07,03,04,44,14.10
2009,07,03,04,45,14.00
2009,07,03,04,46,14.00
2009,07,03,04,47,13.90
2009,07,03,04,48,13.90
2009,07,03,04,49,13.90
2009,07,03,04,50,13.80
2009,07,03,04,51,13.70
2009,07,03,04,52,13.70
2009,07,03,04,53,13.70
2009,07,03,04,54,13.70
2009,07,03,04,55,13.70
2009,07,03,04,56,13.70
2009,07,03,04,57,13.70
2009,07,03,04,58,13.70
2009,07,03,04,59,13.70
2009,07,03,05,00,13.70
2009,07,03,05,01,13.70
2009,07,03,05,02,13.70
2009,07,03,05,03,13.70
2009,07,03,05,04,13.70
2009,07,03,05,05,13.70
2009,07,03,05,06,13.70
2009,07,03,05,07,13.60
2009,07,03,05,08,13.60
2009,07,03,05,09,13.60
2009,07,03,05,10,13.60
2009,07,03,05,11,13.60
2009,07,03,05,12,13.60
2009,07,03,05,13,13.50
2009,07,03,05,14,13.50
2009,07,03,05,15,13.50
2009,07,03,05,16,13.50
2009,07,03,05,17,13.50
2009,07,03,05,18,13.50
2009,07,03,05,19,13.50
2009,07,03,05,20,13.50
2009,07,03,05,21,13.50
2009,07,03,05,22,13.50
2009,07,03,05,23,13.50
2009,07,03,05,24,13.50
2009,07,03,05,25,13.50
2009,07,03,05,26,13.50
2009,07,03,05,27,13.50
2009,07,03,05,28,13.50
2009,07,03,05,29,13.50
2009,07,03,05,30,13.50
2009,07,03,05,31,13.50
2009,07,03,05,32,13.50
2009,07,03,05,33,13.50
2009,07,03,05,34,13.50
2009,07,03,05,35,13.50
2009,07,03,05,36,13.40
2009,07,03,05,37,13.40
2009,07,03,05,38,13.40
2009,07,03,05,39,13.40
2009,07,03,05,40,13.40
2009,07,03,05,41,13.40
2009,07,03,05,42,13.40
2009,07,03,05,43,13.40
2009,07,03,05,44,13.40
2009,07,03,05,45,13.40
2009,07,03,05,46,13.40
2009,07,03,05,47,13.40
2009,07,03,05,48,13.40
2009,07,03,05,49,13.40
2009,07,03,05,50,13.40
2009,07,03,05,51,13.40
2009,07,03,05,52,13.40
2009,07,03,05,53,13.40
2009,07,03,05,54,13.40
2009,07,03,05,55,13.40
2009,07,03,05,56,13.40
2009,07,03,05,57,13.40
2009,07,03,05,58,13.40
2009,07,03,05,59,13.40
2009,07,03,06,00,13.40
2009,07,03,06,01,13.40
2009,07,03,06,02,13.40
2009,07,03,06,03,13.40
2009,07,03,06,04,13.40
2009,07,03,06,05,13.50
2009,07,03,06,06,13.50
2009,07,03,06,07,13.50
2009,07,03,06,08,13.50
2009,07,03,06,09,13.60
2009,07,03,06,10,13.60
2009,07,03,06,11,13.60
2009,07,03,06,12,13.70
2009,07,03,06,13,13.70
2009,07,03,06,14,13.70
2009,07,03,06,15,13.70
2009,07,03,06,16,13.70
2009,07,03,06,17,13.70
2009,07,03,06,18,13.70
2009,07,03,06,19,13.80
2009,07,03,06,20,13.90
2009,07,03,06,21,14.00
2009,07,03,06,22,14.00
2009,07,03,06,23,14.10
2009,07,03,06,24,14.20
2009,07,03,06,25,14.20
2009,07,03,06,26,14.30
2009,07,03,06,27,14.40
2009,07,03,06,28,14.50
2009,07,03,06,29,14.60
2009,07,03,06,30,14.60
2009,07,03,06,31,14.70
2009,07,03,06,32,14.80
2009,07,03,06,33,14.80
2009,07,03,06,34,14.80
2009,07,03,06,35,14.80
2009,07,03,06,36,14.70
2009,07,03,06,37,14.80
2009,07,03,06,38,14.80
2009,07,03,06,39,14.80
2009,07,03,06,40,14.90
2009,07,03,06,41,14.90
2009,07,03,06,42,15.00
2009,07,03,06,43,15.10
2009,07,03,06,44,15.10
2009,07,03,06,45,15.20
2009,07,03,06,46,15.30
2009,07,03,06,47,15.30
2009,07,03,06,48,15.30
2009,07,03,06,49,15.40
2009,07,03,06,50,15.50
2009,07,03,06,51,15.60
2009,07,03,06,52,15.70
2009,07,03,06,53,15.80
2009,07,03,06,54,15.80
2009,07,03,06,55,15.80
2009,07,03,06,56,16.00
2009,07,03,06,57,16.10
2009,07,03,06,58,16.10
2009,07,03,06,59,16.20
2009,07,03,07,00,16.30
2009,07,03,07,01,16.40
2009,07,03,07,02,16.40
2009,07,03,07,03,16.60
2009,07,03,07,04,16.60
2009,07,03,07,05,16.70
2009,07,03,07,06,16.70
2009,07,03,07,07,16.70
2009,07,03,07,08,16.70
2009,07,03,07,09,16.70
2009,07,03,07,10,16.70
2009,07,03,07,11,16.80
2009,07,03,07,12,16.80
2009,07,03,07,13,16.90
2009,07,03,07,14,16.90
2009,07,03,07,15,16.90
2009,07,03,07,16,16.90
2009,07,03,07,17,16.90
2009,07,03,07,18,16.90
2009,07,03,07,19,16.90
2009,07,03,07,20,16.90
2009,07,03,07,21,16.90
2009,07,03,07,22,16.90
2009,07,03,07,23,16.90
2009,07,03,07,24,16.90
2009,07,03,07,25,16.90
2009,07,03,07,26,16.90
2009,07,03,07,27,16.90
2009,07,03,07,28,16.90
2009,07,03,07,29,16.90
2009,07,03,07,30,16.90
2009,07,03,07,31,17.00
2009,07,03,07,32,17.00
2009,07,03,07,33,17.10
2009,07,03,07,34,17.10
2009,07,03,07,35,17.20
2009,07,03,07,36,17.20
2009,07,03,07,37,17.20
2009,07,03,07,38,17.30
2009,07,03,07,39,17.30
2009,07,03,07,40,17.30
2009,07,03,07,41,17.40
2009,07,03,07,42,17.40
2009,07,03,07,43,17.40
2009,07,03,07,44,17.50
2009,07,03,07,45,17.50
2009,07,03,07,46,17.50
2009,07,03,07,47,17.60
2009,07,03,07,48,17.70
2009,07,03,07,49,17.70
2009,07,03,07,50,17.80
2009,07,03,07,51,17.80
2009,07,03,07,52,17.80
2009,07,03,07,53,17.90
2009,07,03,07,54,17.90
2009,07,03,07,55,18.00
2009,07,03,07,56,18.10
2009,07,03,07,57,18.10
2009,07,03,07,58,18.20
2009,07,03,07,59,18.20
2009,07,03,08,00,18.30
2009,07,03,08,01,18.40
2009,07,03,08,02,18.50
2009,07,03,08,03,18.60
2009,07,03,08,04,18.70
2009,07,03,08,05,18.70
2009,07,03,08,06,18.80
2009,07,03,08,07,18.90
2009,07,03,08,08,19.00
2009,07,03,08,09,19.10
2009,07,03,08,10,19.20
2009,07,03,08,11,19.20
2009,07,03,08,12,19.30
2009,07,03,08,13,19.40
2009,07,03,08,14,19.50
2009,07,03,08,15,19.60
2009,07,03,08,16,19.70
2009,07,03,08,17,19.70
2009,07,03,08,18,19.70
2009,07,03,08,19,19.80
2009,07,03,08,20,19.80
2009,07,03,08,21,19.80
2009,07,03,08,22,19.90
2009,07,03,08,23,19.90
2009,07,03,08,24,20.00
2009,07,03,08,25,20.10
2009,07,03,08,26,20.20
2009,07,03,08,27,20.20
2009,07,03,08,28,20.20
2009,07,03,08,29,20.20
2009,07,03,08,30,20.20
2009,07,03,08,31,20.20
2009,07,03,08,32,20.20
2009,07,03,08,33,20.20
2009,07,03,08,34,20.30
2009,07,03,08,35,20.40
2009,07,03,08,36,20.40
2009,07,03,08,37,20.30
2009,07,03,08,38,19.90
2009,07,03,08,39,19.60
2009,07,03,08,40,19.40
2009,07,03,08,41,19.20
2009,07,03,08,42,19.10
2009,07,03,08,43,19.00
2009,07,03,08,44,18.80
2009,07,03,08,45,18.60
2009,07,03,08,46,18.30
2009,07,03,08,47,18.20
2009,07,03,08,48,17.90
2009,07,03,08,49,17.80
2009,07,03,08,50,17.70
2009,07,03,08,51,17.60
2009,07,03,08,52,17.50
2009,07,03,08,53,17.40
2009,07,03,08,54,17.40
2009,07,03,08,55,17.40
2009,07,03,08,56,17.40
2009,07,03,08,57,17.40
2009,07,03,08,58,17.40
2009,07,03,08,59,17.50
2009,07,03,09,00,17.50
2009,07,03,09,01,17.50
2009,07,03,09,02,17.50
2009,07,03,09,03,17.50
2009,07,03,09,04,17.50
2009,07,03,09,05,17.50
2009,07,03,09,06,17.40
2009,07,03,09,07,17.30
2009,07,03,09,08,17.30
2009,07,03,09,09,17.30
2009,07,03,09,10,17.30
2009,07,03,09,11,17.30
2009,07,03,09,12,17.30
2009,07,03,09,13,17.30
2009,07,03,09,14,17.40
2009,07,03,09,15,17.40
2009,07,03,09,16,17.40
2009,07,03,09,17,17.40
2009,07,03,09,18,17.40
2009,07,03,09,19,17.50
2009,07,03,09,20,17.50
2009,07,03,09,21,17.50
2009,07,03,09,22,17.60
2009,07,03,09,23,17.60
2009,07,03,09,24,17.60
2009,07,03,09,25,17.60
2009,07,03,09,26,17.60
2009,07,03,09,27,17.70
2009,07,03,09,28,17.80
2009,07,03,09,29,17.80
2009,07,03,09,30,17.90
2009,07,03,09,31,17.90
2009,07,03,09,32,17.90
2009,07,03,09,33,17.90
2009,07,03,09,34,17.90
2009,07,03,09,35,17.90
2009,07,03,09,36,17.90
2009,07,03,09,37,17.80
2009,07,03,09,38,17.80
2009,07,03,09,39,17.80
2009,07,03,09,40,17.80
2009,07,03,09,41,17.80
2009,07,03,09,42,17.80
2009,07,03,09,43,17.80
2009,07,03,09,44,17.90
2009,07,03,09,45,17.90
2009,07,03,09,46,18.10
2009,07,03,09,47,18.10
2009,07,03,09,48,18.20
2009,07,03,09,49,18.20
2009,07,03,09,50,18.20
2009,07,03,09,51,18.20
2009,07,03,09,52,18.20
2009,07,03,09,53,18.20
2009,07,03,09,54,18.20
2009,07,03,09,55,18.30
2009,07,03,09,56,18.40
2009,07,03,09,57,18.50
2009,07,03,09,58,18.50
2009,07,03,09,59,18.50
2009,07,03,10,00,18.60
2009,07,03,10,01,18.70
2009,07,03,10,02,18.80
2009,07,03,10,03,18.90
2009,07,03,10,04,18.90
2009,07,03,10,05,18.90
2009,07,03,10,06,18.90
2009,07,03,10,07,18.90
2009,07,03,10,08,18.90
2009,07,03,10,09,18.90
2009,07,03,10,10,18.90
2009,07,03,10,11,18.90
2009,07,03,10,12,18.80
2009,07,03,10,13,18.80
2009,07,03,10,14,18.80
2009,07,03,10,15,18.70
2009,07,03,10,16,18.70
2009,07,03,10,17,18.80
2009,07,03,10,18,18.80
2009,07,03,10,19,18.90
2009,07,03,10,20,19.00
2009,07,03,10,21,19.00
2009,07,03,10,22,18.90
2009,07,03,10,23,18.90
2009,07,03,10,24,18.90
2009,07,03,10,25,18.90
2009,07,03,10,26,18.90
2009,07,03,10,27,19.00
2009,07,03,10,28,19.10
2009,07,03,10,29,19.20
2009,07,03,10,30,19.20
2009,07,03,10,31,19.30
2009,07,03,10,32,19.30
2009,07,03,10,33,19.30
2009,07,03,10,34,19.30
2009,07,03,10,35,19.30
2009,07,03,10,36,19.30
2009,07,03,10,37,19.30
2009,07,03,10,38,19.40
2009,07,03,10,39,19.50
2009,07,03,10,40,19.60
2009,07,03,10,41,19.60
2009,07,03,10,42,19.60
2009,07,03,10,43,19.60
2009,07,03,10,44,19.60
2009,07,03,10,45,19.50
2009,07,03,10,46,19.50
2009,07,03,10,47,19.60
2009,07,03,10,48,19.50
2009,07,03,10,49,19.50
2009,07,03,10,50,19.50
2009,07,03,10,51,19.40
2009,07,03,10,52,19.50
2009,07,03,10,53,19.50
2009,07,03,10,54,19.40
2009,07,03,10,55,19.40
2009,07,03,10,56,19.40
2009,07,03,10,57,19.40
2009,07,03,10,58,19.40
2009,07,03,10,59,19.40
2009,07,03,11,00,19.50
2009,07,03,11,01,19.60
2009,07,03,11,02,19.60
2009,07,03,11,03,19.60
2009,07,03,11,04,19.60
2009,07,03,11,05,19.50
2009,07,03,11,06,19.40
2009,07,03,11,07,19.30
2009,07,03,11,08,19.30
2009,07,03,11,09,19.30
2009,07,03,11,10,19.30
2009,07,03,11,11,19.30
2009,07,03,11,12,19.30
2009,07,03,11,13,19.30
2009,07,03,11,14,19.30
2009,07,03,11,15,19.30
2009,07,03,11,16,19.40
2009,07,03,11,17,19.40
2009,07,03,11,18,19.50
2009,07,03,11,19,19.60
2009,07,03,11,20,19.70
2009,07,03,11,21,19.60
2009,07,03,11,22,19.50
2009,07,03,11,23,19.50
2009,07,03,11,24,19.50
2009,07,03,11,25,19.60
2009,07,03,11,26,19.60
2009,07,03,11,27,19.60
2009,07,03,11,28,19.60
2009,07,03,11,29,19.70
2009,07,03,11,30,19.80
2009,07,03,11,31,19.80
2009,07,03,11,32,19.80
2009,07,03,11,33,19.80
2009,07,03,11,34,19.80
2009,07,03,11,35,19.80
2009,07,03,11,36,19.80
2009,07,03,11,37,19.80
2009,07,03,11,38,19.80
2009,07,03,11,39,19.90
2009,07,03,11,40,19.90
2009,07,03,11,41,19.90
2009,07,03,11,42,20.00
2009,07,03,11,43,20.10
2009,07,03,11,44,20.20
2009,07,03,11,45,20.20
2009,07,03,11,46,20.20
2009,07,03,11,47,20.20
2009,07,03,11,48,20.10
2009,07,03,11,49,20.10
2009,07,03,11,50,20.10
2009,07,03,11,51,20.10
2009,07,03,11,52,20.20
2009,07,03,11,53,20.10
2009,07,03,11,54,20.10
2009,07,03,11,55,19.90
2009,07,03,11,56,19.90
2009,07,03,11,57,19.90
2009,07,03,11,58,19.90
2009,07,03,11,59,20.00
2009,07,03,12,00,20.10
2009,07,03,12,01,20.20
2009,07,03,12,02,20.40
2009,07,03,12,03,20.60
2009,07,03,12,04,20.80
2009,07,03,12,05,20.90
2009,07,03,12,06,20.90
2009,07,03,12,07,20.90
2009,07,03,12,08,20.80
2009,07,03,12,09,20.70
2009,07,03,12,10,20.60
2009,07,03,12,11,20.60
2009,07,03,12,12,20.70
2009,07,03,12,13,20.80
2009,07,03,12,14,21.00
2009,07,03,12,15,21.20
2009,07,03,12,16,21.20
2009,07,03,12,17,21.20
2009,07,03,12,18,21.30
2009,07,03,12,19,21.40
2009,07,03,12,20,21.50
2009,07,03,12,21,21.40
2009,07,03,12,22,21.40
2009,07,03,12,23,21.30
2009,07,03,12,24,21.20
2009,07,03,12,25,21.20
2009,07,03,12,26,21.30
2009,07,03,12,27,21.30
2009,07,03,12,28,21.30
2009,07,03,12,29,21.30
2009,07,03,12,30,21.30
2009,07,03,12,31,21.30
2009,07,03,12,32,21.30
2009,07,03,12,33,21.40
2009,07,03,12,34,21.40
2009,07,03,12,35,21.30
2009,07,03,12,36,21.20
2009,07,03,12,37,21.10
2009,07,03,12,38,20.90
2009,07,03,12,39,20.80
2009,07,03,12,40,20.80
2009,07,03,12,41,20.80
2009,07,03,12,42,20.70
2009,07,03,12,43,20.80
2009,07,03,12,44,20.80
2009,07,03,12,45,20.90
2009,07,03,12,46,21.00
2009,07,03,12,47,21.00
2009,07,03,12,48,21.10
2009,07,03,12,49,21.20
2009,07,03,12,50,21.30
2009,07,03,12,51,21.40
2009,07,03,12,52,21.50
2009,07,03,12,53,21.60
2009,07,03,12,54,21.80
2009,07,03,12,55,21.80
2009,07,03,12,56,21.80
2009,07,03,12,57,21.80
2009,07,03,12,58,21.90
2009,07,03,12,59,21.90
2009,07,03,13,00,21.90
2009,07,03,13,01,21.90
2009,07,03,13,02,21.90
2009,07,03,13,03,22.00
2009,07,03,13,04,22.10
2009,07,03,13,05,22.20
2009,07,03,13,06,22.20
2009,07,03,13,07,22.20
2009,07,03,13,08,22.30
2009,07,03,13,09,22.30
2009,07,03,13,10,22.40
2009,07,03,13,11,22.40
2009,07,03,13,12,22.40
2009,07,03,13,13,22.60
2009,07,03,13,14,22.60
2009,07,03,13,15,22.50
2009,07,03,13,16,22.50
2009,07,03,13,17,22.50
2009,07,03,13,18,22.50
2009,07,03,13,19,22.50
2009,07,03,13,20,22.60
2009,07,03,13,21,22.70
2009,07,03,13,22,22.80
2009,07,03,13,23,22.80
2009,07,03,13,24,22.80
2009,07,03,13,25,22.90
2009,07,03,13,26,23.00
2009,07,03,13,27,23.10
2009,07,03,13,28,22.90
2009,07,03,13,29,22.90
2009,07,03,13,30,22.90
2009,07,03,13,31,22.90
2009,07,03,13,32,23.00
2009,07,03,13,33,23.10
2009,07,03,13,34,23.20
2009,07,03,13,35,23.10
2009,07,03,13,36,22.90
2009,07,03,13,37,22.70
2009,07,03,13,38,22.60
2009,07,03,13,39,22.60
2009,07,03,13,40,22.60
2009,07,03,13,41,22.60
2009,07,03,13,42,22.60
2009,07,03,13,43,22.50
2009,07,03,13,44,22.40
2009,07,03,13,45,22.40
2009,07,03,13,46,22.30
2009,07,03,13,47,22.30
2009,07,03,13,48,22.10
2009,07,03,13,49,21.90
2009,07,03,13,50,21.90
2009,07,03,13,51,21.90
2009,07,03,13,52,21.90
2009,07,03,13,53,22.00
2009,07,03,13,54,22.00
2009,07,03,13,55,22.00
2009,07,03,13,56,22.10
2009,07,03,13,57,22.20
2009,07,03,13,58,22.30
2009,07,03,13,59,22.30
2009,07,03,14,00,22.20
2009,07,03,14,01,22.10
2009,07,03,14,02,22.00
2009,07,03,14,03,22.10
2009,07,03,14,04,22.10
2009,07,03,14,05,22.00
2009,07,03,14,06,21.90
2009,07,03,14,07,21.80
2009,07,03,14,08,21.80
2009,07,03,14,09,21.70
2009,07,03,14,10,21.70
2009,07,03,14,11,21.70
2009,07,03,14,12,21.80
2009,07,03,14,13,21.90
2009,07,03,14,14,21.80
2009,07,03,14,15,21.70
2009,07,03,14,16,21.60
2009,07,03,14,17,21.60
2009,07,03,14,18,21.60
2009,07,03,14,19,21.70
2009,07,03,14,20,21.80
2009,07,03,14,21,22.00
2009,07,03,14,22,22.10
2009,07,03,14,23,22.20
2009,07,03,14,24,22.30
2009,07,03,14,25,22.50
2009,07,03,14,26,22.60
2009,07,03,14,27,22.70
2009,07,03,14,28,22.80
2009,07,03,14,29,22.80
2009,07,03,14,30,22.80
2009,07,03,14,31,22.80
2009,07,03,14,32,22.80
2009,07,03,14,33,22.70
2009,07,03,14,34,22.60
2009,07,03,14,35,22.50
2009,07,03,14,36,22.40
2009,07,03,14,37,22.10
2009,07,03,14,38,22.00
2009,07,03,14,39,22.00
2009,07,03,14,40,22.00
2009,07,03,14,41,21.90
2009,07,03,14,42,22.00
2009,07,03,14,43,22.10
2009,07,03,14,44,22.20
2009,07,03,14,45,22.40
2009,07,03,14,46,22.50
2009,07,03,14,47,22.60
2009,07,03,14,48,22.60
2009,07,03,14,49,22.60
2009,07,03,14,50,22.70
2009,07,03,14,51,22.80
2009,07,03,14,52,22.80
2009,07,03,14,53,22.90
2009,07,03,14,54,23.00
2009,07,03,14,55,23.10
2009,07,03,14,56,23.10
2009,07,03,14,57,23.10
2009,07,03,14,58,22.90
2009,07,03,14,59,22.90
2009,07,03,15,00,22.90
2009,07,03,15,01,22.80
2009,07,03,15,02,22.70
2009,07,03,15,03,22.50
2009,07,03,15,04,22.40
2009,07,03,15,05,22.30
2009,07,03,15,06,22.20
2009,07,03,15,07,22.10
2009,07,03,15,08,22.20
2009,07,03,15,09,22.30
2009,07,03,15,10,22.50
2009,07,03,15,11,22.70
2009,07,03,15,12,22.80
2009,07,03,15,13,23.00
2009,07,03,15,14,23.20
2009,07,03,15,15,23.20
2009,07,03,15,16,23.20
2009,07,03,15,17,23.30
2009,07,03,15,18,23.30
2009,07,03,15,19,23.30
2009,07,03,15,20,23.30
2009,07,03,15,21,23.30
2009,07,03,15,22,23.20
2009,07,03,15,23,23.20
2009,07,03,15,24,23.20
2009,07,03,15,25,23.10
2009,07,03,15,26,23.20
2009,07,03,15,27,23.20
2009,07,03,15,28,23.30
2009,07,03,15,29,23.30
2009,07,03,15,30,23.30
2009,07,03,15,31,23.30
2009,07,03,15,32,23.20
2009,07,03,15,33,23.20
2009,07,03,15,34,23.20
2009,07,03,15,35,23.10
2009,07,03,15,36,23.00
2009,07,03,15,37,22.90
2009,07,03,15,38,22.80
2009,07,03,15,39,22.90
2009,07,03,15,40,22.90
2009,07,03,15,41,22.80
2009,07,03,15,42,22.80
2009,07,03,15,43,22.70
2009,07,03,15,44,22.70
2009,07,03,15,45,22.60
2009,07,03,15,46,22.50
2009,07,03,15,47,22.50
2009,07,03,15,48,22.60
2009,07,03,15,49,22.70
2009,07,03,15,50,22.70
2009,07,03,15,51,22.70
2009,07,03,15,52,22.70
2009,07,03,15,53,22.70
2009,07,03,15,54,22.80
2009,07,03,15,55,22.80
2009,07,03,15,56,22.70
2009,07,03,15,57,22.70
2009,07,03,15,58,22.70
2009,07,03,15,59,22.60
2009,07,03,16,00,22.70
2009,07,03,16,01,22.60
2009,07,03,16,02,22.50
2009,07,03,16,03,22.40
2009,07,03,16,04,22.30
2009,07,03,16,05,22.20
2009,07,03,16,06,22.10
2009,07,03,16,07,22.10
2009,07,03,16,08,22.20
2009,07,03,16,09,22.20
2009,07,03,16,10,22.30
2009,07,03,16,11,22.50
2009,07,03,16,12,22.50
2009,07,03,16,13,22.50
2009,07,03,16,14,22.50
2009,07,03,16,15,22.60
2009,07,03,16,16,22.70
2009,07,03,16,17,22.70
2009,07,03,16,18,22.60
2009,07,03,16,19,22.50
2009,07,03,16,20,22.40
2009,07,03,16,21,22.20
2009,07,03,16,22,22.20
2009,07,03,16,23,22.20
2009,07,03,16,24,22.30
2009,07,03,16,25,22.30
2009,07,03,16,26,22.40
2009,07,03,16,27,22.40
2009,07,03,16,28,22.40
2009,07,03,16,29,22.50
2009,07,03,16,30,22.50
2009,07,03,16,31,22.50
2009,07,03,16,32,22.40
2009,07,03,16,33,22.30
2009,07,03,16,34,22.20
2009,07,03,16,35,22.00
2009,07,03,16,36,21.90
2009,07,03,16,37,22.00
2009,07,03,16,38,22.00
2009,07,03,16,39,22.10
2009,07,03,16,40,22.20
2009,07,03,16,41,22.20
2009,07,03,16,42,22.20
2009,07,03,16,43,22.20
2009,07,03,16,44,22.10
2009,07,03,16,45,22.00
2009,07,03,16,46,21.90
2009,07,03,16,47,21.60
2009,07,03,16,48,21.50
2009,07,03,16,49,21.30
2009,07,03,16,50,21.20
2009,07,03,16,51,21.10
2009,07,03,16,52,21.10
2009,07,03,16,53,21.00
2009,07,03,16,54,21.00
2009,07,03,16,55,21.00
2009,07,03,16,56,20.90
2009,07,03,16,57,20.90
2009,07,03,16,58,20.90
2009,07,03,16,59,21.00
2009,07,03,17,00,21.00
2009,07,03,17,01,21.20
2009,07,03,17,02,21.30
2009,07,03,17,03,21.30
2009,07,03,17,04,21.40
2009,07,03,17,05,21.60
2009,07,03,17,06,21.70
2009,07,03,17,07,21.90
2009,07,03,17,08,22.00
2009,07,03,17,09,22.10
2009,07,03,17,10,22.10
2009,07,03,17,11,22.10
2009,07,03,17,12,22.00
2009,07,03,17,13,22.00
2009,07,03,17,14,22.00
2009,07,03,17,15,21.80
2009,07,03,17,16,21.80
2009,07,03,17,17,21.90
2009,07,03,17,18,21.90
2009,07,03,17,19,21.80